Tegucigalpa, Honduras

7:39 AM CST en Noviembre 21, 2017 (GMT -0600)
Toncontin International

Tiempo Historia de MHTG - Septiembre, 2017

Change the Weather History Date:

Miércoles, Septiembre 13, 2017

  Actual Average Record
Temperature  
Temperatura media 76 ° F -  
Temperatura máxima 87 ° F 80 ° F 87 ° F (2006)
Temperatura mínima 65 ° F 62 ° F 59 ° F (2001)
Cooling Degree Days 11    
Growing Degree Days 26 (Base 50)    
Moisture  
Punto de rocío 67 ° F    
Average Humidity 82    
Maximum Humidity 100    
Minimum Humidity 55    
Precipitación  
Precipitación 0.67 pul 0.19 pul - ()
Presión al nivel del mar  
Presión al nivel del mar 30.05 pul    
Viento  
Velocidad del viento 3 mph ()    
Velocidad máxima del viento 9 mph    
Max Gust Speed -    
Visibilidad 5.0 Millas    
Eventos Lluvia , Tormenta    
Averages and records for this station are not official NWS values.
T = Trace of Precipitation, MM = Missing Value Source: Averaged Metar Reports

Daily Weather History Graph

Daily Weather History Graph

Search for Another Location

Airport or City:

Trip Planner

Search our weather history database for the weather conditions in past years. The results will help you decide how hot, cold, wet, or windy it might be!

Date:

Astronomía

Sep. 13, 2017 Salida Puesta
Hora real 5:37 AM CST 5:51 PM CST
Crepúsculo civil 5:16 AM CST 6:12 PM CST
Crepúsculo náutico 4:51 AM CST 6:37 PM CST
Crepúsculo astronómico 4:26 AM CST 7:02 PM CST
Luna Sin salida de luna 12:26 PM CST (9/13)
Horas de luz 12h 56m
Horas de luz
12h 13m
Cuarto menguante, 45% of the Moon is Illuminated
Sep 13
Cuarto menguante
Sep 19
Nueva
Sep 27
Cuarto creciente
Oct 5
Luna llena
Oct 12
Cuarto menguante

Hourly Weather History & Observations

Hora (CST) Temp. Índice de calor Punto de rocío Humedad Presión Visibilidad Wind Dir Velocidad del viento Velocidad de ráfagas Precip Eventos Condiciones
12:00 AM 66 ° F - 66 ° F 100% 30.02 pul 5 mi Sin viento Sin viento - -   Neblina
12:00 AM 66.2 ° F - 66.2 ° F 100% 30.09 pul 5.0 mi Sin viento Sin viento - N/A   Muy nublado
1:00 AM 66.2 ° F - 66.2 ° F 100% 30.09 pul 5.0 mi Oeste 6.9 mph - N/A   Muy nublado
2:00 AM 66.2 ° F - 66.2 ° F 100% 30.06 pul 5.0 mi Sin viento Sin viento - N/A   Muy nublado
3:00 AM 67 ° F - 66 ° F 95% 29.97 pul 5 mi SSO 3.5 mph - -   Neblina
3:00 AM 66.2 ° F - 66.2 ° F 100% 30.06 pul 5.0 mi SSO 3.5 mph - N/A   Muy nublado
4:00 AM 66.2 ° F - 66.2 ° F 100% 30.06 pul 4.3 mi Sin viento Sin viento - N/A   Muy nublado
5:00 AM 66.2 ° F - 66.2 ° F 100% 30.06 pul 4.3 mi Oeste 3.5 mph - N/A   Nubes dispersas
6:00 AM 66 ° F - 65 ° F 95% 30.01 pul 4 mi Sin viento Sin viento - -   Neblina
6:00 AM 66.2 ° F - 64.4 ° F 94% 30.09 pul 4.3 mi Sin viento Sin viento - N/A   Muy nublado
7:00 AM 66.2 ° F - 66.2 ° F 100% 30.09 pul 3.7 mi Sin viento Sin viento - N/A   Muy nublado
8:00 AM 69.8 ° F - 66.2 ° F 88% 30.12 pul 5.0 mi NO 3.5 mph - N/A   Muy nublado
9:00 AM 73 ° F - 66 ° F 72% 29.99 pul 5 mi Sur 3.5 mph - -   Bruma
9:00 AM 73.4 ° F - 66.2 ° F 78% 30.12 pul 5.0 mi Sur 3.5 mph - N/A   Muy nublado
10:00 AM 75.2 ° F - 66.2 ° F 73% 30.12 pul 6.2 mi Sin viento Sin viento - N/A   Nubes dispersas
11:00 AM 82.4 ° F 85.4 ° F 68.0 ° F 62% 30.09 pul 6.2 mi Este 5.8 mph - N/A   Nubes dispersas
12:00 PM 84.2 ° F 87.3 ° F 68.0 ° F 58% 30.06 pul 6.2 mi Este 3.5 mph - N/A   Muy nublado
1:00 PM 84.2 ° F 86.6 ° F 66.2 ° F 55% 30.04 pul 6.2 mi Este 3.5 mph - N/A   Muy nublado
2:00 PM 82.4 ° F 84.6 ° F 66.2 ° F 58% 30.04 pul 6.2 mi Este 5.8 mph - N/A   Nubes dispersas
3:00 PM 77 ° F - 67 ° F 63% 29.81 pul 7 mi Este 9.2 mph - -   Bruma
3:00 PM 82.4 ° F 84.6 ° F 66.2 ° F 58% 30.01 pul 6.2 mi Este 9.2 mph - N/A   Muy nublado
3:28 PM 80.6 ° F 82.7 ° F 66.2 ° F 61% 30.01 pul 6.2 mi ENE 4.6 mph - N/A Tormenta Tormenta
4:00 PM 80.6 ° F 82.7 ° F 66.2 ° F 61% 30.01 pul 6.2 mi Sur 4.6 mph - N/A Tormenta Tormenta
5:00 PM 82.4 ° F 85.4 ° F 68.0 ° F 62% 30.01 pul 6.2 mi Sur 8.1 mph - N/A Tormenta Tormenta
5:05 PM 78.8 ° F - 68.0 ° F 69% 30.01 pul 6.2 mi Sur 8.1 mph - N/A Tormenta Tormenta
6:00 PM 76 ° F - 68 ° F 70% 29.88 pul 2 mi Norte 5.8 mph - - Lluvia , Tormenta Tormenta
6:00 PM 77.0 ° F - 68.0 ° F 74% 30.01 pul 3.7 mi Norte 5.8 mph - N/A Lluvia , Tormenta Tormenta débil
6:02 PM 77.0 ° F - 68.0 ° F 74% 30.04 pul 1.9 mi ENE 6.9 mph - N/A Lluvia , Tormenta Lluvias
6:34 PM 71.6 ° F - 69.8 ° F 94% 30.06 pul 5.0 mi Sin viento Sin viento - N/A Lluvia , Tormenta Tormenta
7:00 PM 71.6 ° F - 69.8 ° F 94% 30.06 pul 5.0 mi Sin viento Sin viento - N/A Tormenta Tormenta
8:00 PM 71.6 ° F - 66.2 ° F 83% 30.09 pul 5.0 mi Sur 5.8 mph - N/A Lluvia , Tormenta Tormenta
9:00 PM 69 ° F - 68 ° F 94% 30.04 pul 4 mi Sin viento Sin viento - - Lluvia , Tormenta Tormenta
9:00 PM 69.8 ° F - 68.0 ° F 94% 30.12 pul 3.1 mi Sin viento Sin viento - N/A Lluvia , Tormenta Tormenta débil
10:00 PM 68.0 ° F - 68.0 ° F 100% 30.12 pul 6.2 mi ESE 2.3 mph - N/A Tormenta Tormenta
11:00 PM 68.0 ° F - 68.0 ° F 100% 30.12 pul 5.0 mi Sin viento Sin viento - N/A   Muy nublado